Torna al catalogo

ATLAS 5 CENTAUR DEB

AttivoHEO
NORAD 57591·DEBRIS·🇺🇸 United States

Lanciato Oct 17, 2018 da Cape Canaveral Space Force Station

Loading…

Prossimi Passaggi (prossime 24 ore)

TLE

AggiornatoSource: Space-Track

Epoca: Sep 14, 2026, 09:56 UTC

1 57591U 18079HS  26257.41456639 -.00000162  00000-0  00000-0 0  9992
2 57591  12.7682  58.5164 4290609 274.3699  39.3203  1.80138446 27109

Traccia ATLAS 5 CENTAUR DEB in tempo reale con AllMySat

Download on the App Store